logo tempoitalia

Diretta Meteo Yuzhno-Sakhalinsk, Russialunedì 31 agosto ore 16:00

Mappa
Sereno 22 °C Sereno 24 Ore: T.min 10 T.max 24
Ponente Sud/Sud-Ovest Km/h 21.6 Punto di rugiada: 8 °C Umidità: 40% Visibilità: 10 Km
Il sole sorge alle: 06:46 Il sole tramonta alle: 20:12
31 Agosto 2026 16:00 tempo osservato: Sereno Sereno 22 40 1018 vento: Nord S/SO 21.6
31 Agosto 2026 15:30 tempo osservato: Sereno Sereno 23 40 1018 vento: Nord S 18
31 Agosto 2026 15:17 tempo osservato: Sereno Sereno 24 43 1018 vento: Nord S/SO 18
31 Agosto 2026 15:00 tempo osservato: Sereno Sereno 24 41 1018 vento: Nord O/NO 10.8
31 Agosto 2026 14:30 tempo osservato: Sereno Sereno 23 40 1019 vento: Nord N 7.2
31 Agosto 2026 14:00 tempo osservato: Sereno Sereno 23 35 1019 vento: Nord N 7.2
31 Agosto 2026 13:30 tempo osservato: Sereno Sereno 22 46 1019 vento: Nord N 7.2
31 Agosto 2026 13:00 tempo osservato: Sereno Sereno 22 40 1019 vento: Nord N 7.2
31 Agosto 2026 12:30 tempo osservato: Sereno Sereno 22 43 1019 vento: Nord N 3.6
31 Agosto 2026 12:00 tempo osservato: Sereno Sereno 21 49 1019 vento: Nord N 3.6
31 Agosto 2026 11:30 tempo osservato: Sereno Sereno 20 49 1019 vento: Nord N 3.6
31 Agosto 2026 11:00 tempo osservato: Sereno Sereno 19 52 1019 vento: Nord N 7.2
31 Agosto 2026 10:30 tempo osservato: Sereno Sereno 19 59 1019 vento: Nord N 3.6
31 Agosto 2026 10:00 tempo osservato: Sereno Sereno 17 67 1019 vento: Nord N 3.6
31 Agosto 2026 09:30 tempo osservato: Sereno Sereno 15 76 1019 vento: Nord N 7.2
31 Agosto 2026 09:00 tempo osservato: Sereno Sereno 14 87 1019 vento: Nord N 7.2
31 Agosto 2026 08:30 tempo osservato: Sereno Sereno 13 93 1018 vento: Nord N 7.2
31 Agosto 2026 08:00 tempo osservato: Sereno Sereno 12 93 1018 vento: Nord N 7.2
31 Agosto 2026 07:30 tempo osservato: Sereno Sereno 10 100 1018 vento: Nord N 3.6
31 Agosto 2026 07:00 tempo osservato: Sereno Sereno 10 100 1018 vento: Nord N 3.6
31 Agosto 2026 06:30 tempo osservato: Sereno Sereno 10 100 1018 vento: Nord N 7.2
31 Agosto 2026 06:00 tempo osservato: Sereno Sereno 10 93 1018 vento: Nord N 7.2
31 Agosto 2026 05:00 tempo osservato: Sereno Sereno 10 93 1018 vento: Nord N 3.6
31 Agosto 2026 04:00 tempo osservato: Sereno Sereno 10 100 1017 vento: Nord N 7.2
31 Agosto 2026 03:00 tempo osservato: Sereno Sereno 10 100 1017 vento: Nord N 3.6
31 Agosto 2026 02:00 tempo osservato: Sereno Sereno 10 100 1017 vento: Nord N 0
31 Agosto 2026 01:00 tempo osservato: Sereno Sereno 11 93 1018 vento: Nord N 7.2
31 Agosto 2026 00:00 tempo osservato: Sereno Sereno 11 93 1017 vento: Nord N 3.6
30 Agosto 2026 23:00 tempo osservato: Sereno Sereno 11 93 1017 vento: Nord N 3.6
30 Agosto 2026 22:30 tempo osservato: Sereno Sereno 12 93 1017 vento: Nord E 10.8
30 Agosto 2026 22:00 tempo osservato: Sereno Sereno 12 93 1017 vento: Nord N 7.2
30 Agosto 2026 21:30 tempo osservato: Sereno Sereno 12 93 1017 vento: Nord N 7.2
30 Agosto 2026 21:00 tempo osservato: Sereno Sereno 12 93 1017 vento: Nord N 7.2
30 Agosto 2026 20:30 tempo osservato: Sereno Sereno 13 93 1017 vento: Nord N 7.2
30 Agosto 2026 20:00 tempo osservato: Molto Nuvoloso Molto Nuvoloso 14 87 1017 vento: Nord N 7.2
30 Agosto 2026 19:30 tempo osservato: Sereno Sereno 15 76 1017 vento: Nord SO 14.4
30 Agosto 2026 19:00 tempo osservato: Sereno Sereno 16 72 1016 vento: Nord S/SO 14.4
30 Agosto 2026 18:30 tempo osservato: Sereno Sereno 17 63 1016 vento: Nord S/SO 18
30 Agosto 2026 18:00 tempo osservato: Nuvoloso Nuvoloso 18 59 1017 vento: Nord S/SO 18
30 Agosto 2026 17:30 tempo osservato: Nuvoloso Nuvoloso 19 59 1016 vento: Nord S 14.4
30 Agosto 2026 17:00 tempo osservato: Nuvoloso Nuvoloso 19 55 1016 vento: Nord S 14.4